Location: Unspecified
(0.0000°N, 0.0000°E)
Time: 08:50:46
(UTC+00:00)

CZ-4C DEB - Pass Details

Date: 15 March 2026
Orbit: 805 x 1381 km, 63.4° (Epoch: 18 April)

Event Time Altitude Azimuth Distance (km) Brightness Sun altitude
Rises 19:55:03 0° 327° (NNW) 4,248 ? -26.5°
Reaches altitude 10° 19:57:52 10° 323° (NW) 3,335 ? -27.2°
Maximum altitude 20:05:54 55° 247° (WSW) 1,610 ? -29.2°
Drops below altitude 10° 20:14:13 10° 171° (S) 3,434 ? -31.3°
Sets 20:17:10 0° 167° (SSE) 4,382 ? -32.1°
